Regional Weather Roundup
Issued by NWS

Home | Current Version | Previous Version | Graphics & Text | Print | Product List | Glossary On
Versions: 1 2 3 4 5 6 7 8 9 10 11 12 13 14 15 16 17 18 19 20 21 22 23 24 25 26 27 28 29 30 31 32 33 34 35 36 37 38 39 40 41 42 43 44 45 46 47 48 49 50
000
ASUS43 KTOP 300408
RWRKS

WEATHER ROUNDUP FOR KANSAS
NATIONAL WEATHER SERVICE GOODLAND KS
1100 PM CDT SUN MAR 29 2015

NOTE:  "FAIR" INDICATES FEW OR NO CLOUDS BELOW 12,000 FEET WITH NO
SIGNIFICANT WEATHER AND/OR OBSTRUCTIONS TO VISIBILITY.

KSZ001>006-013>018-027>032-041>047-300500-
NORTHWEST KANSAS

CITY           SKY/WX    TMP DP  RH WIND       PRES   REMARKS
GOODLAND       CLEAR     44  20  38 S10       30.21R
HAYS           CLEAR     41  12  30 NW5       30.21R
HILL CITY      CLEAR     36  16  44 CALM      30.19S
RUSSELL        CLEAR     51  17  26 E3        30.18R
$$

KSZ061>065-074>080-084>089-300500-
SOUTHWEST KANSAS

CITY           SKY/WX    TMP DP  RH WIND       PRES   REMARKS
DODGE CITY     CLEAR     47  21  35 E8        30.21S
ELKHART          N/A     45  26  47 E8          N/A
GARDEN CITY    CLEAR     48  24  39 E5        30.21R
GREAT BEND     CLEAR     37  18  44 SW3       30.21R
LIBERAL        PTCLDY    46  25  42 CALM      30.24S
PRATT          CLEAR     46  28  49 N3        30.22R
$$

KSZ066>073-081>083-090>101-300500-
SOUTHEAST KANSAS

CITY           SKY/WX    TMP DP  RH WIND       PRES   REMARKS
CHANUTE        CLEAR     53  39  59 N7        30.17R
COFFEYVILLE    CLEAR     49  42  77 NE3       30.17R
HUTCHINSON     CLEAR     54  27  35 NE6       30.19R
MEDICINE LODGE   N/A     49  32  52 N3        30.19R
NEWTON         CLEAR     50  28  43 NE6       30.20S
PARSONS        CLEAR     48  41  76 CALM      30.18R
WICHITA INTL   CLEAR     54  31  41 NE8       30.18R
WICHITA JABRA  CLEAR     50  34  54 NE8       30.18R
WICHITA MCCONL CLEAR     56  34  43 NE9       30.18R
WINFIELD       CLEAR     55  35  47 NE5       30.18R
$$

KSZ007>012-019>026-033>040-048>060-102>105-300500-
NORTHEAST KANSAS

CITY           SKY/WX    TMP DP  RH WIND       PRES   REMARKS
CONCORDIA      CLEAR     51  22  31 CALM      30.18R
EMPORIA        CLEAR     49  33  54 N3        30.18R
LAWRENCE       CLEAR     36  31  82 N6        30.17R
MANHATTAN      CLEAR     43  31  62 CALM      30.17R
MARYSVILLE     FAIR      45  30  57 CALM      30.16S
OLATHE IND     CLEAR     44  35  70 W5        30.17R
OLATHE EXE     CLEAR     50  35  56 NW5       30.15S
SALINA         CLEAR     49  22  34 CALM      30.19R
TOPEKA BILLARD CLEAR     46  35  65 CALM      30.17S
TOPEKA FORBES  CLEAR     44  33  65 CALM      30.16S
$$



USA.gov is the U.S. government's official web portal to all federal, state and local government web resources and services.